Regional Weather Roundup
Issued by NWS Newport/Morehead, NC

Current Version | Previous Version | Graphics & Text | Print | Product List | Glossary On
Versions: 1 2 3 4 5 6 7 8 9 10 11 12 13 14 15 16 17 18 19 20 21 22 23 24 25 26 27 28 29 30 31 32 33 34 35 36 37 38 39 40 41 42 43 44 45 46 47 48 49 50
000 ASUS42 KMHX 051413 RWRMHX WEATHER ROUNDUP FOR EASTERN NORTH CAROLINA NATIONAL WEATHER SERVICE NEWPORT/MOREHEAD CITY NC 1000 AM EDT SAT SEP 05 2015 NOTE: "FAIR" INDICATES FEW OR NO CLOUDS BELOW 12,000 FEET WITH NO SIGNIFICANT WEATHER AND/OR OBSTRUCTIONS TO VISIBILITY NCZ015>017-031-032-045>047-102-103-051500- NORTH COAST CITY SKY/WX TMP DP RH WIND PRES REMARKS EDENTON CLOUDY 78 73 85 NE8 30.11R ELIZABETH CITY MOSUNNY 82 74 76 NE21G29 30.11R KITTY HAWK MOSUNNY 83 74 73 NE10G16 30.08S MANTEO PTSUNNY 81 75 81 E18 30.09R $$ NCZ045>047-081-094-103-104-051500- CENTRAL COAST CITY SKY/WX TMP DP RH WIND PRES REMARKS FRISCO PTSUNNY 81 73 76 NE6 30.06S SWANQUARTER N/A 81 N/A N/A N8G15 30.03S $$ NCZ095-097-098-100-101-051500- SOUTHERN COAST CITY SKY/WX TMP DP RH WIND PRES REMARKS BEAUFORT PTSUNNY 77 74 90 N9 30.07R CEDAR ISLAND N/A 81 N/A N/A VRB10G18 30.12R JACKSONVILLE MOSUNNY 80 71 74 N12 30.07S PINEY ISLAND PTSUNNY N/A N/A N/A NE14 30.07R WILMINGTON MOSUNNY 79 72 79 NE12 30.08R $$ NCZ011>013-027>030-043-044-078>080-089-090>093-098-051500- COASTAL PLAIN CITY SKY/WX TMP DP RH WIND PRES REMARKS AHOSKIE MOSUNNY 75 72 88 NE6 30.14R CLINTON CLOUDY 76 73 91 N3 30.12S FOG ELIZABETHTOWN CLOUDY 76 73 91 CALM 30.11S GOLDSBORO MOSUNNY 78 72 84 N9 30.11R GREENVILLE MOSUNNY 77 73 88 N10 30.13R HAVELOCK MOSUNNY 79 73 82 NE9 30.09R KENANSVILLE N/A 78 71 79 CALM 30.11F KINSTON MOSUNNY 79 72 78 N12 30.12R NEW BERN MOSUNNY 79 72 79 N9 30.10R RICHLANDS PTSUNNY 79 68 69 N8 30.09S ROCKY MOUNT CLOUDY 77 72 84 N9 30.14R HAZE WASHINGTON MOSUNNY 78 72 83 N9 30.11R WHITEVILLE PTSUNNY 77 72 85 NE5 30.10S $$ AMZ130-135-150-152-154-156-158-170-250-252-270-ANZ085-086-088-633-658-670-051500- MARINE OBSERVATIONS STATION/POSITION TIME TEMP WIND PRES WAVE SWELL AIR SEA DIR/SP/G HT/PER HT/PER (UTC) (F) (DEG/KT/KT) (MB) (FT/S) (FT/S) CHESAPEAKE LIGHT 1300 78 60/ 27/ 28 1019.9 64 E VA BEACH 1350 79 80 60/ 19/ 25 1018.4 8/ 8 3/15 DUCK 1300 79 80 50/ 18/ 22 1018.1 2 E DUCK 1311 80 N/A 5/ 5 OREGON INLET 1300 80 80 40/ 13/ 17 1018.0 13E OREGON INLT 1400 80 N/A 3/ 6 HATTERAS CG 1300 80 82 20/ 8/ 11 1017.6 DIAMOND BUOY 1350 81 84 20/ 14/ 16 1017.5 3/ 8 2/ 8 CAPE LOOKOUT 1400 79 20/ 13/ 17 1017.5 BEAUFORT LAB 1300 78 81 30/ 7/ 9 1016.7 30 SE NEW RVR IN NOT AVBL 30 SE NEW RVR IN 1325 81 N/A 5/ 5 27 SE WRIGHTSVLE 1300 77 82 50/ 19/ 21 N/A 5 SE WRIGHTSVLE 1308 78 82 40/ 16/ 21 1017.6 225 S CAPE HAT 1350 82 84 70/ 8/ 10 1015.5 2/ 9 2/ 9 41 SE CHARLESTON 1350 81 84 30/ 10/ 12 1017.0 2/ 4 $$

USA.gov is the U.S. government's official web portal to all federal, state and local government web resources and services.